Wind_Speed
13 13 11 11 11 11 12 12 12 12 11 11 11 11 11 11 11 11 10 10 10 9 9 9 9 9 6 6 6 5 4 4 2 3 3 3 4 4 4 4 4 3
13 12 12 11 11 11 12 12 11 11 11 11 11 11 12 11 10 11 11 11 11 10 10 9 9 9 8 7 8 6 5 4 3 4 4 4 4 5 5 5 5 5
14 13 12 12 11 11 11 11 11 12 11 11 11 11 12 11 11 12 11 11 10 10 10 9 9 9 8 8 8 7 6 6 6 5 6 4 3 5 6 6 6 4
14 14 12 11 11 11 11 11 11 11 11 11 12 12 12 11 12 12 11 11 10 10 10 10 9 9 9 9 8 8 7 7 7 7 7 6 5 6 6 6 7 5
14 14 13 12 12 12 12 11 11 11 11 11 12 12 12 12 13 12 12 12 11 10 10 10 10 10 9 9 9 8 8 8 8 8 8 7 6 6 6 6 6 6
15 14 15 14 13 13 13 13 12 13 13 12 11 12 12 13 13 13 12 12 12 11 11 11 11 10 10 10 10 9 9 8 9 10 9 8 7 6 6 6 5 5
16 15 15 15 14 13 14 14 13 14 14 14 13 12 12 12 13 13 13 12 12 12 12 12 12 11 11 11 10 10 10 9 8 10 10 8 7 7 7 7 6 5
16 15 15 15 15 14 14 14 13 14 14 15 14 14 13 12 13 13 13 13 12 12 12 12 13 12 11 11 11 11 10 10 9 10 9 8 8 8 7 7 6 7
16 16 16 15 15 15 15 13 13 13 14 14 14 14 14 14 13 13 13 13 12 12 13 13 13 13 12 12 12 11 11 10 10 10 9 9 9 8 8 8 8 8
16 16 16 16 15 15 15 14 13 14 14 14 14 13 13 14 13 13 14 14 13 12 12 13 13 13 12 12 12 12 11 11 10 9 9 9 9 9 9 8 8 8
16 16 15 16 15 15 15 15 14 14 14 13 13 12 12 13 13 13 14 14 13 12 13 13 13 13 13 12 12 11 11 11 11 10 9 10 10 9 9 9 9 9
17 16 15 15 16 15 15 15 14 14 15 14 13 11 13 14 14 13 14 15 14 13 13 14 14 13 13 13 12 11 12 11 11 11 10 10 10 10 10 10 10 10
17 16 16 15 15 15 15 15 14 14 15 15 14 13 13 15 15 14 14 15 14 13 13 14 14 13 13 13 12 11 12 12 11 11 10 10 11 11 10 11 11 12
18 17 17 15 15 16 16 15 15 15 16 15 15 15 15 15 16 15 13 13 13 13 12 12 13 13 12 12 12 12 11 11 11 11 11 11 11 11 11 11 12 12
19 17 17 15 14 15 16 15 13 14 15 16 15 14 15 14 14 14 13 12 12 12 12 12 13 13 12 13 13 13 11 11 12 11 10 11 12 11 12 12 12 12
19 17 16 15 13 13 14 15 13 11 12 14 15 15 15 14 13 13 13 13 12 13 13 12 12 12 14 14 13 12 11 11 12 10 10 11 12 12 12 12 13 13
17 16 15 14 13 12 11 12 12 11 10 10 11 13 14 13 12 11 13 13 13 14 14 14 13 13 14 14 14 14 13 11 10 9 9 10 11 12 12 13 13 14
14 14 14 14 13 12 12 12 12 12 12 10 10 11 12 13 13 12 13 12 11 12 10 9 11 13 14 14 16 18 17 14 11 9 9 10 11 11 12 12 13 14
12 11 12 13 12 11 10 10 10 11 11 11 10 10 10 11 12 12 11 11 10 8 3 1 4 9 12 14 16 17 18 17 14 10 9 11 12 13 13 13 14 14
9 9 9 9 10 9 8 7 7 8 9 9 9 8 7 7 9 8 7 7 8 6 3 2 1 3 6 9 11 13 15 15 13 10 9 10 12 14 15 15 14 13
10 10 9 7 7 7 7 8 8 8 8 8 6 5 5 6 6 5 6 7 8 6 4 3 4 4 5 7 8 9 10 10 10 9 9 11 12 13 13 12 11 11
11 11 9 8 8 8 8 9 10 9 9 8 6 6 7 7 6 7 8 9 9 9 9 8 7 6 7 7 8 9 9 8 7 7 8 9 10 10 10 10 10 11
6 7 8 8 10 11 9 9 9 9 9 9 8 6 5 7 10 11 11 10 8 6 7 9 8 7 7 7 8 8 8 7 7 6 6 7 8 9 9 10 11 11
4 4 6 8 9 7 6 7 7 7 7 6 7 7 5 5 6 7 7 7 5 4 5 7 8 7 6 6 7 7 7 7 6 5 6 8 9 8 8 7 8 9
7 5 5 7 7 4 3 4 3 4 3 3 4 5 5 4 3 3 3 4 4 4 4 4 4 4 5 5 6 6 6 6 5 5 5 7 8 7 6 5 6 8
11 8 6 5 5 4 4 5 6 6 7 8 7 6 8 6 3 2 4 5 5 4 2 1 1 1 2 4 4 4 5 3 1 1 2 3 4 4 4 4 4 5
Wind_Direction
171 172 169 168 170 172 174 178 181 182 184 186 185 186 189 191 191 187 186 188 188 191 193 194 197 197 195 196 201 203 197 208 222 204 230 261 260 270 276 268 274 286
173 177 174 172 178 179 178 182 184 183 187 188 185 187 187 187 189 185 185 189 187 192 196 195 199 198 194 200 204 206 212 222 226 232 246 250 263 281 281 273 265 260
175 178 179 180 180 181 184 187 186 186 188 186 186 190 187 185 188 187 188 192 188 193 197 195 202 200 197 205 202 200 218 225 221 239 252 241 252 277 280 282 274 256
179 180 183 185 182 183 190 190 190 190 189 189 189 191 192 189 187 188 192 194 191 196 197 195 204 202 199 211 206 199 217 227 225 237 252 250 253 265 270 279 285 284
186 185 185 188 187 188 193 190 191 193 191 193 191 191 196 191 186 188 192 194 193 197 198 196 203 205 203 211 211 206 220 232 230 232 243 249 250 257 267 267 272 287
189 191 191 194 193 191 194 194 196 196 192 191 189 191 193 189 190 192 190 194 195 194 199 198 201 205 203 208 213 211 219 231 230 225 226 237 246 246 254 260 259 270
189 193 194 197 196 194 198 200 199 195 192 192 192 192 192 190 194 196 192 196 198 197 201 200 201 205 205 209 214 215 221 228 225 223 221 226 240 243 243 253 255 254
189 192 194 196 197 199 204 203 199 195 193 194 195 194 195 195 196 198 197 199 201 200 201 201 201 204 207 209 211 216 222 225 225 230 233 231 237 243 243 248 248 246
193 194 196 198 199 203 206 204 200 198 197 197 198 197 197 199 200 200 198 200 204 203 203 206 203 201 210 214 212 214 218 225 231 232 232 233 240 244 244 248 248 248
198 198 199 202 204 204 204 207 206 202 201 203 205 203 196 198 205 204 199 200 205 206 206 210 205 202 213 220 217 218 220 228 236 236 233 234 240 244 243 247 249 250
199 202 203 204 207 208 207 209 209 203 203 210 214 209 199 200 206 204 201 201 204 207 205 207 209 208 215 222 221 221 223 229 235 236 239 239 242 247 248 251 254 257
202 203 205 207 209 213 213 210 209 203 203 211 218 214 205 206 208 204 202 202 205 211 209 209 214 216 218 222 225 225 225 228 233 235 238 241 245 248 248 250 252 255
206 206 208 211 209 215 219 213 210 210 206 208 215 217 213 210 209 208 206 203 205 215 217 215 217 220 222 225 228 235 233 228 231 237 240 242 244 247 249 250 251 251
205 209 212 215 210 217 227 221 213 214 212 206 208 218 222 215 208 207 208 204 207 217 222 220 220 222 227 228 229 237 241 236 234 237 243 248 249 250 254 256 258 260
203 211 216 219 213 214 227 233 228 221 215 208 207 216 225 223 216 210 207 207 212 222 225 224 222 223 228 231 231 234 241 246 246 242 244 251 255 256 262 265 266 268
200 209 215 219 219 215 221 230 236 236 226 215 210 216 225 229 229 221 217 218 216 219 226 229 227 228 232 235 234 233 237 246 252 253 254 259 262 264 270 273 273 275
197 207 212 214 217 217 217 221 228 237 243 232 219 220 226 231 234 231 231 230 221 217 226 233 232 230 232 236 230 225 227 235 246 257 263 268 270 269 274 278 280 285
196 205 211 213 213 214 216 220 224 229 237 241 235 229 229 233 237 239 243 246 240 235 235 228 220 220 225 232 229 222 222 226 235 251 265 272 274 271 271 272 274 279
204 208 206 205 205 206 208 212 218 223 228 234 235 233 235 237 238 241 247 249 252 263 287 87 196 209 212 217 218 216 220 225 231 246 264 274 281 283 282 280 279 280
211 221 216 206 199 200 203 206 211 217 221 223 223 230 246 251 244 244 247 239 240 263 319 19 283 230 208 210 210 211 218 224 228 240 260 272 279 285 289 290 291 293
200 216 230 233 222 217 222 231 236 237 235 233 229 234 244 244 242 250 251 234 228 237 241 232 238 231 218 220 224 225 228 232 237 252 268 274 276 283 293 297 293 293
205 212 223 240 257 251 236 235 243 247 247 248 248 244 234 229 238 254 252 239 231 229 226 223 226 228 222 223 233 243 248 250 254 264 275 279 279 285 297 301 296 296
198 203 203 223 244 244 234 236 243 245 248 244 232 222 213 220 233 240 242 239 235 225 217 220 230 241 240 235 238 248 257 259 259 267 277 276 275 283 292 294 295 300
126 151 175 201 217 219 228 243 243 243 250 238 212 190 147 150 195 209 215 218 206 181 193 215 229 240 245 249 250 254 264 267 263 264 269 266 265 276 288 289 294 299
97 113 160 190 196 192 205 209 197 203 190 139 154 171 155 149 169 182 196 201 180 163 180 206 226 243 259 268 269 272 278 275 268 270 275 273 270 269 274 286 296 297
93 97 117 157 167 145 137 129 112 111 119 113 113 132 144 157 186 176 161 170 177 181 188 222 272 278 299 302 296 293 286 262 246 309 312 306 296 270 261 291 297 286
Height
844 845 846 847 848 849 850 851 851 852 854 854 855 856 857 858 859 860 861 862 863 863 864 865 865 866 867 867 868 869 869 870 870 870 871 871 871 871 871 871 870 870
843 844 845 846 847 848 849 850 851 852 853 854 855 856 856 858 859 859 861 861 862 863 864 865 865 865 866 867 867 868 869 869 869 870 870 870 871 870 871 870 870 870
842 843 844 846 847 848 849 850 851 851 852 853 854 855 856 857 858 859 860 861 862 863 864 864 865 865 866 866 867 867 868 868 868 868 869 869 870 870 870 870 870 869
841 842 844 845 846 847 848 849 850 851 852 853 854 855 856 856 858 858 860 861 862 863 863 864 865 865 866 866 866 867 867 868 868 868 868 868 869 869 869 870 869 869
840 841 843 844 845 846 847 848 850 851 851 853 853 854 855 856 857 858 859 860 861 863 863 864 865 865 866 866 866 867 867 867 867 867 868 868 868 869 869 869 869 869
840 841 842 843 844 845 847 847 849 850 851 852 853 854 855 855 857 857 858 859 860 862 863 863 864 865 865 866 866 867 867 867 867 867 868 868 868 868 868 868 868 868
839 840 841 842 843 844 845 847 848 849 850 851 852 853 854 855 856 857 857 859 860 861 862 862 863 864 865 865 866 866 867 867 867 867 867 867 867 867 867 867 867 867
837 839 840 841 842 844 845 846 847 848 849 850 851 852 853 854 855 856 857 858 859 860 861 862 862 863 864 865 865 865 866 867 867 866 867 867 867 867 867 867 867 867
836 837 839 840 841 843 844 845 846 847 848 849 850 851 852 853 854 855 856 857 858 859 859 860 861 862 863 864 864 864 865 865 866 865 866 866 866 866 866 866 866 866
835 836 838 839 840 841 843 844 845 846 847 848 849 850 851 852 853 854 855 856 856 857 858 859 860 861 862 863 863 864 864 864 865 865 865 865 865 866 866 866 866 866
834 835 836 838 839 840 841 842 844 845 846 847 848 849 850 851 852 853 854 855 855 856 857 858 859 860 861 861 862 863 863 864 864 864 865 865 865 865 865 865 865 865
832 834 835 836 838 839 840 841 843 844 845 846 847 848 849 850 851 852 853 854 855 855 856 857 858 859 859 860 861 861 862 863 863 863 864 864 864 864 864 864 864 864
831 833 834 835 836 838 838 839 841 843 843 845 846 847 849 849 850 851 852 853 854 855 855 856 857 858 858 858 859 860 860 861 862 862 862 862 863 863 863 863 862 862
831 832 833 834 835 836 837 838 839 841 842 843 845 846 847 848 848 850 852 852 853 854 854 855 856 857 857 857 858 859 860 860 861 861 861 861 862 862 861 861 861 861
830 831 832 833 834 835 836 837 838 840 841 842 843 845 846 847 847 849 851 851 852 853 853 855 855 856 856 856 857 857 858 859 860 860 860 860 860 861 861 860 860 860
829 831 832 833 833 834 835 836 837 839 840 841 842 844 845 846 846 847 849 849 850 851 853 853 854 854 854 854 855 856 857 858 858 858 859 859 859 860 860 860 859 859
828 830 831 832 833 833 834 835 837 838 839 840 841 843 844 845 846 846 847 848 849 850 851 851 851 852 853 853 853 854 855 856 857 857 857 858 858 858 859 859 859 859
828 829 830 831 832 833 834 835 836 837 838 839 840 842 843 844 845 846 847 847 848 848 849 849 849 849 850 851 852 852 853 854 855 856 856 857 857 857 858 858 858 858
828 828 829 831 832 833 834 835 836 837 838 839 840 842 843 844 846 847 847 847 847 847 847 847 847 848 848 849 850 850 852 853 854 855 855 856 856 856 856 857 856 856
828 829 830 831 831 833 834 835 836 836 838 839 841 842 844 845 846 846 846 846 846 846 846 846 847 848 848 849 849 850 851 851 852 854 855 855 856 856 856 855 855 855
826 829 831 832 832 833 834 835 836 836 838 839 841 844 846 847 847 847 846 845 845 846 846 846 847 848 848 849 849 849 850 851 852 852 853 854 855 855 855 854 853 853
824 827 829 832 834 835 834 834 835 836 837 839 841 844 845 845 847 847 846 845 845 845 845 845 846 847 847 847 848 849 849 850 851 851 852 853 854 854 854 853 852 852
823 825 827 830 833 834 834 834 835 836 837 838 840 842 842 842 844 844 844 844 844 844 844 845 845 846 846 846 847 848 848 849 850 850 851 852 852 852 852 851 851 851
823 824 825 828 831 831 833 834 834 835 836 836 838 840 841 841 842 842 843 844 844 844 844 845 845 845 845 846 846 847 847 848 848 849 849 850 850 851 851 851 850 850
822 824 826 827 829 830 832 833 833 835 836 836 838 840 841 842 842 842 843 843 843 844 844 845 845 844 845 845 845 846 846 847 848 848 848 849 849 849 850 850 850 849
822 825 826 827 828 830 832 833 833 835 836 836 836 838 839 841 842 842 842 843 843 844 844 845 845 844 845 845 845 845 845 846 847 847 847 848 848 848 849 850 850 849